Location: Zlin
(49.2330°N, 17.6670°E)
Time: 19:20:41
(UTC+02:00)

ISS - Visible Passes

Search period start: 29 May 2016 00:00
Search period end: 08 June 2016 00:00
Orbit: 402 x 404 km, 51.6° (Epoch: 29 May)

Date Brightness Start Highest point End Pass type
(mag) Time Alt. Az. Time Alt. Az. Time Alt. Az.
29 May -2.6 00:24:33 10° W 00:27:46 53° N 00:31:00 10° ENE visible
29 May -3.4 02:01:07 10° WNW 02:04:24 83° NNE 02:07:41 10° ESE visible
29 May -2.3 03:37:51 10° W 03:40:37 25° SW 03:43:20 10° SSE visible
29 May -3.2 21:55:15 10° SW 21:58:26 52° SSE 22:01:38 10° ENE visible
29 May -2.7 23:31:39 10° W 23:34:54 58° N 23:38:08 10° ENE visible
30 May -3.0 01:08:19 10° WNW 01:11:34 65° N 01:14:49 10° E visible
30 May -2.9 02:44:52 10° WNW 02:47:57 39° SSW 02:51:02 10° SE visible
30 May -3.1 22:38:46 10° W 22:42:02 71° NNW 22:45:18 10° ENE visible
31 May -2.7 00:15:28 10° WNW 00:18:43 55° N 00:21:56 10° E visible
31 May -3.4 01:51:59 10° WNW 01:55:13 62° SSW 01:56:17 37° SE visible
31 May -3.4 21:45:55 10° WSW 21:49:12 87° SSE 21:52:29 10° ENE visible
31 May -2.5 23:22:35 10° W 23:25:49 53° N 23:29:01 10° ENE visible
01 Jun -3.5 00:59:08 10° WNW 01:02:25 90° SSW 01:03:20 45° ESE visible
01 Jun -2.6 22:29:39 10° W 22:32:53 56° N 22:36:08 10° ENE visible
02 Jun -3.1 00:06:18 10° WNW 00:09:34 69° NNE 00:11:28 23° E visible
02 Jun -1.4 01:42:52 10° W 01:44:01 19° W 01:44:01 19° W visible
02 Jun -2.9 21:36:44 10° W 21:39:59 66° NNW 21:43:15 10° ENE visible
02 Jun -2.7 23:13:25 10° WNW 23:16:40 57° N 23:19:53 10° E visible
03 Jun -2.8 00:49:56 10° WNW 00:52:29 44° WSW 00:52:29 44° WSW visible
03 Jun -2.5 22:20:30 10° WNW 22:23:44 53° N 22:26:56 10° E visible
03 Jun -3.5 23:57:02 10° WNW 00:00:19 82° SSW 00:01:05 49° ESE visible
04 Jun -2.5 21:27:33 10° W 21:30:46 55° N 21:34:00 10° ENE visible
04 Jun -3.2 23:04:09 10° WNW 23:07:26 74° NNE 23:09:45 18° E visible
05 Jun -1.6 00:40:46 10° W 00:42:20 21° WSW 00:42:20 21° WSW visible
05 Jun -2.8 22:11:16 10° WNW 22:14:30 60° N 22:17:44 10° E visible
05 Jun -3.1 23:47:46 10° WNW 23:50:56 48° SSW 23:51:03 48° SSW visible
06 Jun -3.4 22:54:49 10° WNW 22:58:05 74° SSW 22:59:48 25° ESE visible
07 Jun -0.8 00:31:56 10° W 00:32:24 12° WSW 00:32:24 12° WSW visible
07 Jun -3.3 22:01:53 10° WNW 22:05:11 80° NNE 22:08:27 10° ESE visible
07 Jun -2.1 23:38:35 10° W 23:41:11 26° SW 23:41:11 26° SW visible
